Lid_Strength_Index
3 3 3 3 3 3 3 3 3 3 3 3 3 3 3 3 3 4 7 5 3 -1 0 5 5 5 5 5 6 6 7 9 9 10 9 7 10 7 8 5 5 4 4 3 2
3 3 3 3 3 3 3 3 3 3 3 3 3 3 3 3 4 6 1 -0 -1 -2 5 6 6 6 6 6 6 6 7 8 7 7 8 7 9 9 10 6 6 6 3 3 2
3 3 3 3 3 3 3 3 3 3 3 3 4 3 3 2 6 4 -2 -1 -1 -1 4 5 6 6 7 7 7 8 8 7 7 7 7 7 8 9 9 10 9 9 4 4 3
3 3 3 3 3 3 3 3 3 3 3 3 4 3 3 4 9 6 -2 -2 -2 1 5 6 7 7 8 8 7 8 8 7 7 6 7 7 7 8 9 8 7 6 3 3 4
3 3 3 3 3 3 3 3 3 3 3 3 3 3 3 7 7 1 -2 -2 2 4 5 7 7 7 8 8 8 8 7 7 6 7 7 7 7 7 8 7 6 5 3 3 3
3 3 4 4 4 4 3 3 3 3 3 2 3 3 6 8 4 2 2 4 4 4 5 6 6 6 7 8 8 8 8 7 7 7 7 7 7 8 6 6 5 5 4 3 3
3 4 4 4 4 3 3 3 3 3 3 2 2 3 7 6 2 3 4 5 4 5 5 5 5 6 6 8 7 8 8 8 8 7 8 7 7 7 5 5 5 5 4 3 3
3 4 4 4 4 3 3 3 3 3 2 2 2 3 7 5 3 3 4 4 5 5 5 5 5 6 6 7 8 9 9 10 8 8 8 7 9 6 5 6 5 5 4 5 3
4 4 4 4 4 3 3 3 2 2 2 1 3 4 5 2 3 3 3 5 4 5 4 5 5 7 7 8 9 9 11 10 9 8 8 8 8 6 4 6 6 5 5 5 4
4 4 4 4 4 4 4 3 1 2 2 2 3 6 4 5 3 4 3 4 5 5 6 6 7 7 7 8 11 11 10 10 10 8 7 8 8 6 5 6 5 5 4 5 5
4 4 4 4 4 4 4 5 5 6 5 6 6 6 5 3 3 4 4 4 5 5 8 7 8 9 9 8 9 9 10 10 8 8 9 8 8 6 6 5 6 6 6 4 4
4 4 4 4 4 4 5 5 5 5 7 6 5 5 4 3 6 5 4 6 6 8 7 8 9 8 8 8 9 9 10 9 8 7 8 7 8 6 6 6 7 7 6 6 5
4 4 4 4 5 5 4 5 4 5 7 6 6 5 5 4 6 6 4 6 7 8 8 9 8 8 7 8 8 9 9 9 9 7 7 8 8 7 6 6 6 6 6 6 5
4 4 4 5 6 6 5 5 5 5 8 8 6 6 5 5 7 5 5 5 7 8 8 8 8 8 8 9 8 10 8 8 9 9 11 8 12 8 8 8 7 6 6 6 5
4 4 4 5 5 5 5 5 5 4 13 7 7 5 6 7 7 6 4 5 8 8 8 9 8 8 8 9 8 10 8 9 9 9 10 10 11 9 8 8 8 7 6 6 5
4 4 5 5 5 6 5 5 4 9 14 9 8 8 8 7 7 6 5 5 6 7 7 8 7 7 8 7 8 8 9 9 9 10 13 11 11 10 11 11 9 7 6 6 6
4 4 4 5 5 5 5 4 9 13 9 11 10 8 8 9 8 7 8 8 8 10 10 9 9 7 7 9 8 8 10 13 14 13 13 11 11 11 10 9 8 8 7 7 7
5 5 4 3 3 4 4 6 12 12 11 9 10 9 10 8 9 8 8 9 8 8 10 11 12 9 8 9 10 9 10 14 17 15 14 10 14 10 8 7 6 6 6 6 8
6 3 3 3 3 4 5 10 11 11 10 10 9 11 10 9 9 9 9 9 9 8 10 11 12 8 8 7 7 10 11 9 13 13 15 12 11 9 8 8 7 7 6 7 7
4 4 4 3 4 3 6 11 10 9 9 9 11 10 12 11 10 10 10 9 10 9 8 10 12 10 9 7 7 8 8 12 12 18 18 13 14 12 11 10 8 8 7 6 6
4 5 3 4 3 5 9 9 9 8 8 9 10 11 10 11 10 11 11 10 9 9 8 9 11 12 10 10 10 10 11 12 12 14 17 19 14 9 9 8 8 8 6 6 5
5 6 3 4 7 8 9 9 9 8 7 8 8 9 10 10 11 11 11 10 8 8 10 10 11 13 12 9 8 9 10 11 13 15 14 15 14 7 7 7 7 7 6 5 5
6 7 3 4 10 10 8 9 8 8 8 9 9 8 8 9 11 10 9 8 7 8 10 9 11 14 13 10 9 10 10 10 11 11 15 17 13 8 7 7 7 7 6 5 5
6 8 6 7 8 9 10 10 9 7 8 8 9 8 9 10 9 10 9 8 8 8 8 8 10 11 13 12 10 11 10 10 10 14 13 13 11 9 7 7 6 6 5 5 5
7 9 8 10 9 9 9 9 10 10 8 8 9 9 9 10 10 10 10 9 8 8 9 9 12 11 10 10 10 10 10 10 12 10 13 11 10 8 7 6 6 5 5 5 5
7 8 8 9 10 9 10 10 10 9 9 9 9 9 9 9 9 10 9 9 10 9 10 9 11 11 11 10 10 11 10 10 10 10 10 10 10 6 6 5 6 5 5 6 5
7 7 7 11 10 10 10 10 10 9 8 8 8 9 9 9 8 7 7 7 8 9 10 10 10 12 14 12 12 13 11 10 10 9 9 11 8 6 7 7 7 6 5 6 5